Regional Weather Roundup
Issued by NWS Lake Charles, LA

Current Version | Previous Version | Text Only | Print | Product List | Glossary On
Versions: 1 2 3 4 5 6 7 8 9 10 11 12 13 14 15 16 17 18 19 20 21 22 23 24 25 26 27 28 29 30 31 32 33 34 35 36 37 38 39 40 41 42 43 44 45 46 47
000
ASUS44 KLCH 271010
RWRLCH
RWRLCH
REGIONAL WEATHER ROUNDUP
NATIONAL WEATHER SERVICE LAKE CHARLES LA
400 AM CST TUE JAN 27 2015

Note: "fair" indicates few or no clouds below 12,000 feet with no
significant weather and/or obstructions to visibility.


ACROSS SOUTHEAST TEXAS

CITY           SKY/WX    TMP DP  RH WIND       PRES   REMARKS
BEAUMONT       PTCLDY    46  43  89 SW6       30.09F
BEAUMONT CITY    N/A     46  43  89 CALM      30.10F
ORANGE         MOSUNNY   52  45  75 W3        30.11S
JASPER         CLEAR     37  36  97 CALM      30.11S
$$

ACROSS CENTRAL LOUISIANA

CITY           SKY/WX    TMP DP  RH WIND       PRES   REMARKS
LEESVILLE      CLEAR     46  38  73 W2        30.06F
FULLERTON        N/A     43  37  79 CALM      30.04F
ALEXANDRIA INT CLEAR     41  37  86 CALM      30.05F
ESLER FIELD    CLEAR     47  37  68 W8        30.05F
DERIDDER         N/A     41  37  84 CALM      30.09F
OAKDALE        SUNNY     36  35  95 CALM      30.07F
OPELOUSAS        N/A     46  40  79 CALM      30.07F
$$

ACROSS SOUTHWEST AND SOUTH CENTRAL LOUISIANA

CITY           SKY/WX    TMP DP  RH WIND       PRES   REMARKS
SULPHUR        MOSUNNY   48  44  84 CALM      30.09F
LAKE CHARLES   PTCLDY    50  44  80 W5        30.09F
CHENNAULT INT  NOT AVBL
CAMERON PHI      N/A     54  48  82 W7        30.12F
DEQUINCY         N/A     41  38  89 CALM      30.09S
JENNINGS         N/A     47  43  85 SW3       30.08F
LAFAYETTE      CLEAR     46  42  86 SW5       30.08F
NEW IBERIA     CLEAR     47  43  86 W5        30.09F
ABBEVILLE        N/A     47  45  91 SW5       30.08F
PATTERSON      CLEAR     48  43  81 W6        30.10F
SALT POINT       N/A     51  49  92 W5        30.09F
$$

SELECTED SITES ACROSS THE REGION

CITY           SKY/WX    TMP DP  RH WIND       PRES   REMARKS
HOUSTON BUSH   PTCLDY    52  41  66 W6        30.11F
HOUSTON HOBBY  PTCLDY    50  43  77 SW7       30.12F
GALVESTON      CLEAR     52  45  77 SW6       30.14F
COLLEGE STAT   CLEAR     47  39  74 W6        30.11F
CONROE         PTCLDY    40  38  93 CALM      30.11F
HUNTSVILLE     PTCLDY    54  39  57 SW9       30.09F
LUFKIN         CLEAR     45  38  76 CALM      30.07F
SHREVEPORT     CLEAR     42  37  82 CALM      30.04F
MONROE         CLEAR     47  36  65 CALM      30.05R
NATCHEZ MS     CLEAR     43  34  70 CALM      30.05S
BATON ROUGE    CLEAR     44  39  82 W5        30.07S
N.O. INTL ARPT CLEAR     47  40  76 W7        30.07F
SLIDELL        CLEAR     50  41  71 CALM      30.05F
$$

MARINE REPORTS

STATION/POSITION TIME  TEMP    WIND        PRES    VSBY  WAVE
                       AIR SEA DIR/SP/G                  HT/PER
                 (UTC) (F)     (DEG/KT/KT) (MB)    (MI)  (FT/S)
BUOY 30 S HIGH I 1000   58 55  260/ 12/ 14 1019.5F         1/ 3
SEA RIM ST PARK  1000   48     250/  7/  8 1019.8F
PORT ARTHUR      1000      52  270/  6/  8 1019.1F
SABINE PASS N    1000   51 53  250/  3/  7 1019.2F
TEXAS POINT      NOT AVBL
CALCASIEU PASS   1000   55 53  280/  8/ 10   N/A
LK CHARLES BEACH 1000   54 53              1018.9F
MARSH ISLAND     0900   57     270/ 13/ 15   N/A
FRESH WATER LOCK 1000   54 53  250/  6/  9 1019.1F
AMERADA PASS     1000   50 46  240/  3/  4 1019.0S
$$



USA.gov is the U.S. government's official web portal to all federal, state and local government web resources and services.